Terug naar catalogus

STARLINK-5475

ActiefCommunicatieVLEO
NORAD 55661·PAYLOAD·🇺🇸 United States

Gelanceerd Feb 17, 2023 vanaf Vandenberg Space Force Base

Loading…

Volgende Passages (komende 24 uur)

TLE

VersSource: CelesTrak SupGP

Epoch: Sep 15, 2026, 02:41 UTC

1 55661C 23021AK  26258.11229167  .00695420  00000+0  57255-1 0  2581
2 55661  70.0006  46.8888 0002991 270.6956 222.9872 14.98664852    12

Volg STARLINK-5475 in realtime met AllMySat

Download on the App Store